Terminal Aerodrome Forecast
Issued by NWS Upton, NY

Home | Current Version | Previous Version | Text Only | Print | Product List | Glossary On
Versions: 1 2 3 4 5 6 7 8 9 10 11 12 13 14 15 16 17 18 19 20 21 22 23 24 25 26
000
FTUS41 KOKX 010300 AAA
TAFLGA
TAF AMD
KLGA 010314Z 0103/0124 19006KT P6SM BKN120
     FM011400 18009KT P6SM FEW060 BKN250
     FM011900 17012KT P6SM SCT060 BKN150=

USA.gov is the U.S. government's official web portal to all federal, state and local government web resources and services.